Tracking 18984 objects as of 24-Feb-2018
HD Live streaming from Space Station
objects crossing your sky now

FENGYUN 1C DEB

Track FENGYUN 1C DEB now!
10-day predictions


NORAD ID: 36693
Int'l Code: 1999-025DZP
Perigee: 571.6 km
Apogee: 797.1 km
Inclination: 97.6 °
Period: 98.3 minutes
Semi major axis: 7055 km
RCS: 0.009 m2 (small)
Launch date: May 10, 1999
Source: People's Republic of China (PRC)
Launch site: Taiyaun Space Center, China (TSC)

Note: This is SATELLITE DEBRIS
aabbcc
Your satellite tracking list
Your tracking list is empty




NASA's NSSDC Master Catalog

Two Line Element Set (TLE):
1 36693U 99025DZP 18054.58468697 +.00003713 +00000-0 +58205-3 0  9990
2 36693 097.6024 347.9511 0159753 115.8012 245.9772 14.64960372258604
Source of the keplerian elements: AFSPC